Other Public Products
Issued by NWS Charleston, SC

Current Version | Previous Version | Text Only | Print | Product List | Glossary On
Versions: 1 2 3 4 5 6 7 8 9 10 11 12 13 14 15 16 17 18 19 20 21 22 23 24 25 26 27 28 29 30 31 32 33 34 35 36 37 38 39 40 41 42 43 44 45 46 47 48 49 50
000 FPUS82 KCHS 260527 OPUCHS TEST...KCHS/KSAV Gateway Observations...TEST National Weather Service Charleston SC 100 AM EDT TUE SEP 26 2017 NOTE: "fair" indicates few or no clouds below 12,000 feet with no significant weather and/or obstructions to visibility. SCZ050-WAZ558-NCZ071-TXZ119-213-PAZ071-DCZ001-FLZ074-172-MI076- NYZ176-178-MAZ016-IL014-TNZ027-NJZ106-GAZ044-MD014-260600- ...Gateway Observations for Charleston International... CITY SKY/WX TMP DP RH WIND PRES REMARKS Chas Airport MOCLDY 73 69 87 NW6 29.87F Seattle CLOUDY 62 53 72 NW3 30.13R Charlotte MOCLDY 71 67 87 N8 29.97R Dallas DFW CLOUDY 83 67 58 SE13 29.87R Dallas Love CLOUDY 82 66 58 S13 29.88R Philladelphia CLOUDY 70 64 81 CALM 30.04R Wash National MOCLDY 75 66 73 NE9 30.01F Baltimore MOCLDY 70 66 87 CALM 30.02F Miami CLOUDY 83 77 82 CALM 29.87F HX 92 Detroit CLOUDY 73 70 90 CALM 29.99S Newark PTCLDY 70 66 87 S5 30.03S Laguardia PTCLDY 71 66 84 SE5 30.02S J F K PTCLDY 67 65 93 CALM 30.04S Boston Logan FOG 65 65 100 E5 30.05R VSB 1/4 Ft. Lauderdale CLOUDY 82 77 84 W3 29.86F HX 90 Chicago O`Hare PTCLDY 75 58 55 S5 29.93S Chicago Midway PTCLDY 79 57 46 S5 29.94S Houston Bush PTCLDY 74 71 91 E5 29.87R Houston Hobby PTCLDY 79 72 79 CALM 29.86R Nashville CLEAR 70 67 90 CALM 29.97S Atlanta CLEAR 75 61 61 N5 29.98S $$ GAZ044-118-TXZ119-213-NCZ071-DCZ001-MDZ014-506-PAZ021-071-NJZ106- NYZ176-178-MAZ106-OHZ011-021-055-MIZ076-KYZ091-ILZ014-INZ047- MNZ060-ONZ431-260600- ...Gateway Observations for Savannah International... CITY SKY/WX TMP DP RH WIND PRES REMARKS Savannah Arpt CLEAR 70 68 93 NW3 29.90S Atlanta CLEAR 75 61 61 N5 29.98S Charlotte MOCLDY 71 67 87 N8 29.97R Dallas DFW CLOUDY 83 67 58 SE13 29.87R Houston Bush PTCLDY 74 71 91 E5 29.87R Wash National MOCLDY 75 66 73 NE9 30.01F Wash Dulles MOCLDY 72 66 81 E3 30.01F Baltimore MOCLDY 70 66 87 CALM 30.02F Philadelphia CLOUDY 70 64 81 CALM 30.04R Newark PTCLDY 70 66 87 S5 30.03S Laguardia PTCLDY 71 66 84 SE5 30.02S J F K PTCLDY 67 65 93 CALM 30.04S Boston FOG 65 65 100 E5 30.05R VSB 1/4 Pittsburg CLOUDY 69 65 86 S3 30.03S Akron MOCLDY 72 58 61 CALM 30.03S Cleveland CLOUDY 73 61 65 S5 30.02S Cincinnati CLEAR 73 65 75 CALM 30.01R Columbus CLOUDY 67 64 89 CALM 30.01R Detroit CLOUDY 73 70 90 CALM 29.99S Chicago O`Hare PTCLDY 75 58 55 S5 29.93S Minneapolis LGT RAIN 58 58 100 N9 29.95F Indianapolis CLEAR 73 63 70 SW5 29.99R Toronto Canada PTCLDY 75 66 73 N6 30.00S $$

USA.gov is the U.S. government's official web portal to all federal, state and local government web resources and services.